C/2018 F1 ( Grauer )

Japanese version
Home page
Updated on October 22, 2018

---------------------------------------------------------------------

* Profile

Discovery Date March 17, 2018
Magnitude 19.1 mag
Discoverer A. D. Grauer (Mount Lemmon)

* Pictures

* Orbital Elements

Epoch 2018 Dec. 28.0 TT = JDT 2458480.5
T 2018 Dec. 14.07453 TT                                 MPCW
q   2.9931324            (2000.0)            P               Q
z  +0.0031040      Peri.   71.62128     -0.34607064     +0.93759040
 +/-0.0000032      Node   177.29018     -0.86156670     -0.33195749
e   0.9907094      Incl.   46.07095     +0.37139996     +0.10357835
From 160 observations 2017 Dec. 22-2018 July 16, mean residual 0".5.

* Magnitudes Graph

        m1 = 10.5 + 5 log d + 10.0 log r

---------------------------------------------------------------------

The orbital elements are published on M.P.E.C. 2018-S50.
The magnitudes graphs are made with Comet for Windows.

---------------------------------------------------------------------

Copyright(C) Seiichi Yoshida (comet@aerith.net). All rights reserved.